EW7486 Weather Reports


time (UTC)temp
C
wind
direction
speed
KPH
gust
KPH
rain 1hr
cm
rain 24hr
cm
rain mn
cm
humidity
%
barometer
mb
20260906094530 22 244 0.0 0.0 0.00 0.00 0.00 89 1008.5
20260906093044 22 244 0.0 0.0 0.00 0.00 0.00 89 1008.5
20260906091528 22 244 0.0 0.0 0.00 0.00 0.00 88 1008.4
20260906090029 22 244 0.0 0.0 0.00 0.00 0.00 88 1008.5
20260906084527 22 244 0.0 0.0 0.00 0.00 0.00 88 1008.5
20260906083027 22 244 0.0 0.0 0.00 0.00 0.00 88 1008.6
20260906081543 22 244 0.0 0.0 0.00 0.00 0.00 89 1008.3
20260906080026 22 244 0.0 0.0 0.00 0.00 0.00 88 1008.3
20260906074524 22 244 0.0 0.0 0.00 0.00 0.00 88 1008.2
20260906073039 22 244 0.0 0.0 0.00 0.00 0.00 89 1008.2
20260906071522 22 244 0.0 0.0 0.00 0.00 0.00 90 1008.2
20260906070034 22 244 0.0 0.0 0.00 0.00 0.00 89 1008.4
20260906064521 22 244 0.0 0.0 0.00 0.00 0.00 89 1008.2
20260906063021 22 244 0.0 0.0 0.00 0.00 0.00 88 1008.4
20260906061517 22 244 0.0 0.0 0.00 0.00 0.00 87 1008.7
20260906060015 22 244 0.0 0.0 0.00 0.00 0.00 87 1008.9
20260906054520 22 244 0.0 0.0 0.00 0.00 0.00 87 1009.1
20260906053012 22 244 0.0 0.0 0.00 0.00 0.00 87 1009.4
20260906051519 23 244 0.0 0.0 0.00 0.00 0.00 88 1009.4
20260906050010 23 244 0.0 3.2 0.00 0.00 0.00 88 1009.7
20260906044509 23 244 0.0 0.0 0.00 0.00 0.00 87 1009.5
20260906043007 23 244 0.0 0.0 0.00 0.00 0.00 86 1009.6
20260906041505 23 244 0.0 0.0 0.00 0.00 0.00 86 1009.7
20260906040004 23 244 0.0 0.0 0.00 0.00 0.00 85 1009.6
20260906034502 23 244 0.0 1.6 0.00 0.00 0.00 85 1009.7
20260906033002 23 244 0.0 0.0 0.00 0.00 0.00 84 1009.7
20260906031500 23 244 0.0 0.0 0.00 0.00 0.00 83 1009.6
20260906030108 23 244 0.0 0.0 0.00 0.00 0.00 82 1009.7
20260906024600 24 244 0.0 0.0 0.00 0.00 0.00 82 1009.2
20260906023128 24 244 0.0 3.2 0.00 0.00 0.00 82 1009.3
20260906021515 24 244 0.0 0.0 0.00 0.00 0.00 82 1009.7
20260906020057 24 300 0.0 0.0 0.00 0.00 0.00 82 1009.6
20260906014543 24 300 0.0 0.0 0.00 0.00 0.00 81 1009.1
20260906013012 24 300 0.0 0.0 0.00 0.00 0.00 81 1009.1
20260906011526 24 300 0.0 0.0 0.00 0.00 0.00 80 1009.0
20260906010106 25 300 0.0 0.0 0.00 0.00 0.00 79 1008.8
20260906003135 25 300 0.0 0.0 0.00 0.00 0.00 77 1008.2
20260906001602 25 300 0.0 3.2 0.00 0.00 0.00 75 1008.2
20260906000136 25 300 0.0 3.2 0.00 0.00 0.00 75 1008.3
20260905234507 26 300 0.0 0.0 0.00 0.00 0.00 74 1008.2
20260905231525 26 300 0.0 0.0 0.00 0.00 0.00 72 1008.3
20260905230025 26 300 0.0 0.0 0.00 0.00 0.00 72 1008.2
20260905224529 26 300 0.0 3.2 0.00 0.00 0.00 72 1007.9
20260905223032 26 300 0.0 3.2 0.00 0.00 0.00 70 1008.1
20260905221522 26 300 0.0 3.2 0.00 0.00 0.00 70 1008.2
20260905220021 26 300 0.0 3.2 0.00 0.00 0.00 70 1008.2
20260905214521 26 300 0.0 3.2 0.00 0.00 0.00 69 1008.2
20260905213020 27 300 0.0 3.2 0.00 0.00 0.00 68 1008.6
20260905211523 27 248 0.0 3.2 0.00 0.00 0.00 70 1008.8
20260905210104 27 325 0.0 3.2 0.00 0.00 0.00 69 1008.8
20260905204514 27 281 0.0 1.6 0.00 0.00 0.00 67 1008.7
20260905203100 27 281 0.0 3.2 0.00 0.00 0.00 64 1008.7
20260905201625 27 281 0.0 3.2 0.00 0.00 0.00 63 1008.6
20260905200111 28 281 0.0 3.2 0.00 0.00 0.00 61 1009.0
20260905194512 28 311 0.0 6.4 0.00 0.00 0.00 58 1009.6
20260905193011 29 9 0.0 8.0 0.00 0.00 0.00 56 1009.7
20260905191512 31 23 1.6 8.0 0.00 0.00 0.00 53 1009.2
20260905190026 33 319 0.0 14.5 0.00 0.00 0.00 47 1009.3
20260905184555 35 232 0.0 3.2 0.00 0.00 0.00 45 1008.2
20260905183016 36 145 0.0 3.2 0.00 0.00 0.00 42 1008.5
20260905181551 35 223 0.0 3.2 0.00 0.00 0.00 46 1008.2
20260905180008 35 199 0.0 3.2 0.00 0.00 0.00 47 1008.9
20260905174506 35 198 0.0 3.2 0.00 0.00 0.00 49 1008.9
20260905173105 34 135 0.0 3.2 0.00 0.00 0.00 50 1008.9
20260905171502 34 211 0.0 6.4 0.00 0.00 0.00 51 1009.0
20260905170057 33 213 0.0 3.2 0.00 0.00 0.00 54 1009.2
20260905164600 32 211 0.0 3.2 0.00 0.00 0.00 54 1009.7
20260905163049 32 175 0.0 3.2 0.00 0.00 0.00 57 1009.9
20260905161546 31 209 0.0 3.2 0.00 0.00 0.00 62 1010.2
20260905160042 31 207 0.0 3.2 0.00 0.00 0.00 65 1010.1
20260905154538 30 237 0.0 3.2 0.00 0.00 0.00 66 1010.3
20260905153051 30 238 0.0 3.2 0.00 0.00 0.00 68 1010.5
20260905151531 29 167 0.0 3.2 0.00 0.00 0.00 70 1010.6
20260905150027 28 272 0.0 3.2 0.00 0.00 0.00 72 1010.6
20260905144525 27 272 0.0 3.2 0.00 0.00 0.00 73 1010.5
20260905143024 27 272 0.0 3.2 0.00 0.00 0.00 76 1010.6
20260905141540 26 286 0.0 1.6 0.00 0.00 0.00 78 1010.7
20260905140041 26 286 0.0 0.0 0.00 0.00 0.00 81 1011.0
20260905134541 25 286 0.0 0.0 0.00 0.00 0.00 84 1011.1
20260905133038 25 292 0.0 0.0 0.00 0.00 0.00 84 1011.3
20260905131553 25 292 0.0 3.2 0.00 0.00 0.00 84 1011.1
20260905130041 24 292 0.0 1.6 0.00 0.00 0.00 87 1011.0
20260905124534 23 292 0.0 3.2 0.00 0.00 0.00 88 1010.9
20260905123035 23 292 0.0 0.0 0.00 0.00 0.00 89 1010.9
20260905121536 23 292 0.0 0.0 0.00 0.00 0.00 91 1010.9
20260905120033 23 292 0.0 0.0 0.00 0.00 0.00 90 1010.6
20260905114531 23 292 0.0 0.0 0.00 0.00 0.00 89 1010.5
20260905113029 23 292 0.0 0.0 0.00 0.00 0.00 88 1010.4
20260905111548 23 292 0.0 0.0 0.00 0.00 0.00 88 1010.3
20260905110028 23 292 0.0 0.0 0.00 0.00 0.00 88 1010.1
20260905104526 23 292 0.0 0.0 0.00 0.00 0.00 88 1010.0
20260905103028 23 292 0.0 0.0 0.00 0.00 0.00 87 1010.0
20260905101523 23 292 0.0 1.6 0.00 0.00 0.00 88 1009.9
20260905100024 24 292 0.0 1.6 0.00 0.00 0.00 89 1009.9